| time (UTC) | temp F | wind direction | speed MPH | gust MPH | rain 1hr in | rain 24hr in | rain mn in | humidity % | barometer mb |
| 20260903100014 | 70 | 229 | 0.0 | 2.0 | 0.02 | 0.85 | 0.75 | 96 | 1017.1 |
| 20260903094514 | 70 | 224 | 0.0 | 2.0 | 0.15 | 0.85 | 0.75 | 96 | 1017.2 |
| 20260903093014 | 70 | 260 | 0.0 | 2.0 | 0.34 | 0.84 | 0.74 | 96 | 1017.3 |
| 20260903091508 | 70 | 260 | 0.0 | 0.0 | 0.34 | 0.84 | 0.74 | 96 | 1017.4 |
| 20260903090008 | 70 | 260 | 0.0 | 0.0 | 0.33 | 0.83 | 0.73 | 96 | 1017.3 |
| 20260903084504 | 70 | 260 | 0.0 | 2.0 | 0.20 | 0.70 | 0.60 | 96 | 1019.2 |
| 20260903083021 | 70 | 312 | 0.0 | 4.0 | 0.01 | 0.50 | 0.40 | 96 | 1019.1 |
| 20260903081518 | 70 | 347 | 0.0 | 0.0 | 0.01 | 0.50 | 0.40 | 96 | 1017.1 |
| 20260903080018 | 70 | 347 | 0.0 | 0.0 | 0.01 | 0.50 | 0.40 | 96 | 1016.9 |
| 20260903074520 | 70 | 347 | 0.0 | 0.0 | 0.01 | 0.50 | 0.40 | 96 | 1017.1 |
| 20260903073023 | 70 | 347 | 0.0 | 0.0 | 0.01 | 0.49 | 0.39 | 96 | 1017.3 |
| 20260903071513 | 70 | 347 | 0.0 | 0.0 | 0.03 | 0.49 | 0.39 | 96 | 1017.1 |
| 20260903070016 | 70 | 347 | 0.0 | 1.0 | 0.15 | 0.49 | 0.39 | 95 | 1017.4 |
| 20260903064521 | 70 | 195 | 0.0 | 2.0 | 0.39 | 0.49 | 0.39 | 95 | 1017.5 |
| 20260903063023 | 70 | 195 | 0.0 | 1.0 | 0.38 | 0.48 | 0.38 | 95 | 1017.3 |
| 20260903061539 | 71 | 195 | 0.0 | 2.0 | 0.36 | 0.46 | 0.36 | 95 | 1017.7 |
| 20260903060026 | 71 | 195 | 0.0 | 1.0 | 0.24 | 0.34 | 0.24 | 95 | 1019.2 |
| 20260903054525 | 71 | 303 | 0.0 | 2.0 | 0.00 | 0.10 | 0.00 | 95 | 1019.4 |
| 20260903053020 | 71 | 326 | 0.0 | 0.0 | 0.00 | 0.10 | 0.00 | 95 | 1017.8 |
| 20260903051515 | 71 | 326 | 0.0 | 0.0 | 0.00 | 0.10 | 0.00 | 95 | 1017.7 |
| 20260903050016 | 71 | 326 | 0.0 | 2.0 | 0.00 | 0.10 | 0.00 | 95 | 1017.8 |
| 20260903044511 | 71 | 326 | 0.0 | 0.0 | 0.00 | 0.10 | 0.00 | 95 | 1017.7 |
| 20260903043010 | 71 | 326 | 0.0 | 0.0 | 0.00 | 0.10 | 0.00 | 95 | 1018.0 |
| 20260903041505 | 71 | 326 | 0.0 | 0.0 | 0.00 | 0.10 | 0.00 | 95 | 1018.2 |
| 20260903040004 | 71 | 326 | 0.0 | 0.0 | 0.00 | 0.10 | 0.00 | 95 | 1018.5 |
| 20260903034504 | 71 | 326 | 0.0 | 2.0 | 0.00 | 0.10 | 0.10 | 94 | 1018.6 |
| 20260903033026 | 71 | 326 | 0.0 | 0.0 | 0.00 | 0.10 | 0.10 | 94 | 1018.5 |
| 20260903031525 | 71 | 326 | 0.0 | 0.0 | 0.00 | 0.10 | 0.10 | 94 | 1018.7 |
| 20260903030018 | 71 | 326 | 0.0 | 0.0 | 0.00 | 0.10 | 0.10 | 94 | 1018.4 |
| 20260903024513 | 71 | 326 | 0.0 | 2.0 | 0.00 | 0.11 | 0.10 | 94 | 1018.7 |
| 20260903023010 | 71 | 326 | 0.0 | 0.0 | 0.00 | 0.11 | 0.10 | 94 | 1018.6 |
| 20260903021508 | 71 | 326 | 0.0 | 2.0 | 0.00 | 0.11 | 0.10 | 94 | 1018.2 |
| 20260903020010 | 71 | 342 | 0.0 | 1.0 | 0.00 | 0.11 | 0.10 | 95 | 1018.0 |
| 20260903014504 | 72 | 342 | 0.0 | 0.0 | 0.00 | 0.11 | 0.10 | 95 | 1018.1 |
| 20260903013027 | 72 | 342 | 0.0 | 1.0 | 0.00 | 0.11 | 0.10 | 95 | 1018.3 |
| 20260903011524 | 71 | 342 | 0.0 | 2.0 | 0.00 | 0.11 | 0.10 | 95 | 1018.4 |
| 20260903010017 | 72 | 342 | 0.0 | 2.0 | 0.00 | 0.11 | 0.10 | 95 | 1018.7 |
| 20260903004514 | 72 | 1 | 0.0 | 1.0 | 0.00 | 0.47 | 0.10 | 95 | 1018.4 |
| 20260903003015 | 72 | 1 | 0.0 | 0.0 | 0.00 | 0.74 | 0.10 | 95 | 1018.4 |
| 20260903001507 | 72 | 1 | 0.0 | 2.0 | 0.00 | 0.74 | 0.10 | 95 | 1018.3 |
| 20260903000008 | 72 | 1 | 0.0 | 2.0 | 0.00 | 0.74 | 0.10 | 95 | 1018.2 |
| 20260902234528 | 72 | 1 | 0.0 | 2.0 | 0.00 | 0.74 | 0.10 | 95 | 1018.0 |
| 20260902233030 | 72 | 1 | 0.0 | 0.0 | 0.00 | 0.74 | 0.10 | 95 | 1018.0 |
| 20260902231540 | 72 | 1 | 0.0 | 2.0 | 0.00 | 0.74 | 0.10 | 95 | 1018.1 |
| 20260902230023 | 72 | 1 | 0.0 | 2.0 | 0.00 | 0.74 | 0.10 | 95 | 1018.1 |
| 20260902224518 | 72 | 18 | 0.0 | 0.0 | 0.00 | 0.74 | 0.10 | 95 | 1018.3 |
| 20260902223027 | 72 | 18 | 0.0 | 0.0 | 0.00 | 0.74 | 0.10 | 95 | 1018.5 |
| 20260902221520 | 72 | 18 | 0.0 | 0.0 | 0.00 | 0.74 | 0.10 | 95 | 1018.8 |
| 20260902220010 | 72 | 18 | 0.0 | 2.0 | 0.00 | 0.74 | 0.10 | 95 | 1018.8 |
| 20260902214540 | 72 | 20 | 0.0 | 1.0 | 0.00 | 0.74 | 0.10 | 95 | 1018.5 |
| 20260902213030 | 72 | 20 | 0.0 | 1.0 | 0.00 | 0.74 | 0.10 | 95 | 1018.5 |
| 20260902211531 | 72 | 336 | 0.0 | 2.0 | 0.00 | 0.74 | 0.10 | 95 | 1018.2 |
| 20260902210025 | 73 | 336 | 0.0 | 0.0 | 0.00 | 0.74 | 0.10 | 95 | 1018.4 |
| 20260902204522 | 73 | 336 | 0.0 | 0.0 | 0.00 | 0.74 | 0.10 | 95 | 1018.5 |
| 20260902203018 | 72 | 336 | 0.0 | 0.0 | 0.00 | 0.74 | 0.10 | 95 | 1018.6 |
| 20260902201517 | 73 | 336 | 0.0 | 2.0 | 0.00 | 0.74 | 0.10 | 96 | 1018.4 |
| 20260902200031 | 73 | 334 | 0.0 | 2.0 | 0.00 | 0.74 | 0.10 | 96 | 1018.3 |
| 20260902194547 | 73 | 23 | 0.0 | 0.0 | 0.00 | 0.74 | 0.10 | 96 | 1018.4 |
| 20260902193030 | 72 | 23 | 0.0 | 2.0 | 0.00 | 0.74 | 0.10 | 95 | 1018.5 |
| 20260902191505 | 72 | 349 | 0.0 | 2.0 | 0.02 | 0.74 | 0.10 | 95 | 1018.6 |
| 20260902190006 | 72 | 349 | 0.0 | 0.0 | 0.04 | 0.74 | 0.10 | 95 | 1018.8 |
| 20260902184503 | 72 | 349 | 0.0 | 0.0 | 0.08 | 0.74 | 0.10 | 95 | 1019.1 |
| 20260902183028 | 72 | 349 | 0.0 | 0.0 | 0.10 | 0.74 | 0.10 | 94 | 1019.2 |
| 20260902181518 | 72 | 349 | 0.0 | 0.0 | 0.08 | 0.72 | 0.08 | 94 | 1019.0 |
| 20260902180014 | 73 | 349 | 0.0 | 0.0 | 0.06 | 0.70 | 0.06 | 93 | 1019.4 |
| 20260902174512 | 73 | 349 | 0.0 | 0.0 | 0.02 | 0.66 | 0.02 | 92 | 1019.9 |
| 20260902173013 | 73 | 349 | 0.0 | 0.0 | 0.00 | 0.64 | 0.00 | 90 | 1020.4 |
| 20260902171511 | 74 | 349 | 0.0 | 2.0 | 0.00 | 0.64 | 0.00 | 89 | 1020.4 |
| 20260902170012 | 74 | 356 | 0.0 | 0.0 | 0.00 | 0.64 | 0.00 | 90 | 1020.4 |
| 20260902164531 | 74 | 1 | 0.0 | 2.0 | 0.00 | 0.64 | 0.00 | 90 | 1020.4 |
| 20260902163026 | 73 | 1 | 0.0 | 2.0 | 0.00 | 0.64 | 0.00 | 91 | 1020.0 |
| 20260902161533 | 73 | 18 | 0.0 | 2.0 | 0.00 | 0.64 | 0.00 | 90 | 1020.0 |
| 20260902160022 | 74 | 18 | 0.0 | 2.0 | 0.00 | 0.64 | 0.00 | 90 | 1020.0 |
| 20260902154515 | 73 | 51 | 0.0 | 2.0 | 0.00 | 0.64 | 0.00 | 92 | 1019.8 |
| 20260902153012 | 72 | 338 | 0.0 | 2.0 | 0.00 | 0.64 | 0.00 | 93 | 1020.1 |
| 20260902151518 | 72 | 338 | 0.0 | 2.0 | 0.00 | 0.64 | 0.00 | 94 | 1020.2 |
| 20260902150008 | 72 | 338 | 1.0 | 2.0 | 0.00 | 0.64 | 0.00 | 95 | 1020.4 |
| 20260902144529 | 71 | 352 | 0.0 | 3.0 | 0.00 | 0.64 | 0.00 | 96 | 1020.2 |
| 20260902143029 | 71 | 360 | 0.0 | 2.0 | 0.00 | 0.64 | 0.00 | 96 | 1019.9 |
| 20260902141532 | 70 | 360 | 0.0 | 2.0 | 0.00 | 0.64 | 0.00 | 96 | 1019.9 |
| 20260902140024 | 70 | 360 | 0.0 | 1.0 | 0.00 | 0.64 | 0.00 | 96 | 1020.0 |
| 20260902134527 | 70 | 360 | 0.0 | 2.0 | 0.00 | 0.64 | 0.00 | 96 | 1020.2 |
| 20260902133017 | 70 | 14 | 0.0 | 2.0 | 0.00 | 0.64 | 0.00 | 97 | 1019.8 |
| 20260902131511 | 69 | 14 | 0.0 | 2.0 | 0.00 | 0.64 | 0.00 | 97 | 1019.7 |
| 20260902130030 | 70 | 347 | 0.0 | 2.0 | 0.00 | 0.64 | 0.00 | 97 | 1019.6 |
| 20260902124531 | 70 | 297 | 0.0 | 2.0 | 0.00 | 0.64 | 0.00 | 97 | 1019.6 |
| 20260902123031 | 69 | 297 | 0.0 | 2.0 | 0.00 | 0.64 | 0.00 | 97 | 1019.5 |
| 20260902121528 | 70 | 297 | 0.0 | 2.0 | 0.00 | 0.64 | 0.00 | 97 | 1019.2 |
| 20260902120029 | 70 | 297 | 0.0 | 0.0 | 0.00 | 0.64 | 0.00 | 97 | 1019.1 |
| 20260902114523 | 70 | 297 | 0.0 | 2.0 | 0.00 | 0.64 | 0.00 | 97 | 1019.2 |
| 20260902113019 | 70 | 297 | 0.0 | 0.0 | 0.00 | 0.64 | 0.00 | 96 | 1019.4 |
| 20260902111515 | 70 | 297 | 0.0 | 0.0 | 0.00 | 0.64 | 0.00 | 96 | 1019.3 |
| 20260902110039 | 70 | 297 | 0.0 | 2.0 | 0.00 | 0.64 | 0.00 | 96 | 1019.3 |
| 20260902104547 | 70 | 297 | 0.0 | 2.0 | 0.00 | 0.64 | 0.00 | 96 | 1019.2 |
| 20260902103032 | 70 | 297 | 0.0 | 2.0 | 0.00 | 0.64 | 0.00 | 96 | 1018.8 |
| 20260902101508 | 70 | 281 | 0.0 | 2.0 | 0.00 | 0.64 | 0.00 | 96 | 1018.9 |